Location: Unspecified
(40.7945°N, 0.0000°E)
Time: 21:20:19
(UTC+00:00)

Explorer 7 - Pass Details

Date: 21 June 2021
Orbit: 484 x 676 km, 50.3° (Epoch: 28 July)

Event Time Altitude Azimuth Distance (km) Brightness Sun altitude
Rises 01:39:11 0° 304° (NW) 2,971 10.7 -21.9°
Reaches altitude 10° 01:41:38 10° 309° (NW) 2,034 9.9 -21.7°
Maximum altitude 01:46:13 52° 26° (NNE) 767 7.8 -21.3°
Drops below altitude 10° 01:50:31 10° 104° (ESE) 1,912 9.7 -21.0°
Sets 01:52:46 0° 109° (ESE) 2,775 10.5 -20.8°
